Regional Weather Roundup
Issued by NWS

Home | Current Version | Previous Version | Text Only | Print | Product List | Glossary Off
Versions: 1 2 3 4 5 6 7 8 9 10 11 12 13 14 15 16 17 18 19 20 21 22 23 24 25 26 27 28 29 30 31 32 33 34 35 36 37 38 39 40 41 42 43 44 45 46 47 48 49 50

000
ASUS43 KDTX 132110
RWRMI
MICHIGAN HOURLY REGIONAL WEATHER ROUNDUP
NATIONAL WEATHER SERVICE DETROIT/PONTIAC MI
400 PM EST WED DEC 13 2017

NOTE: "FAIR" INDICATES FEW OR NO CLOUDS BELOW 12,000 FEET WITH NO
SIGNIFICANT WEATHER AND/OR OBSTRUCTION TO VISIBILITY.

MIZ047>049-052>055-059>063-066>070-074>076-081>083-132200-
SOUTHEAST LOWER MICHIGAN

CITY           SKY/WX    TMP DP  RH WIND       PRES   REMARKS
ADRIAN         CLOUDY    22  15  75 SE12      29.42F WCI  10
ALMA           SNOW      19  18  94 E9        29.45F VSB 1/2 WCI   9
ANN ARBOR      SNOW      20  17  88 E9        29.44F VSB 1/2 WCI   9
BAD AXE        LGT SNOW  16  13  86 E9        29.54F VSB 1   WCI   5
CARO           SNOW      18  15  89 E8        29.49F VSB 1/2 WCI   8
DETROIT CITY   LGT SNOW  21  18  88 SE13      29.49F FOG     WCI   9
DETROIT        SNOW      24  18  77 SE10G20   29.47F VSB 1/2 WCI  14
FLINT          HVY SNOW  19  16  88 E13       29.45F VSB 1/4 WCI   6
GROSSE ILE     CLOUDY    24  19  83 SE15G22   29.46F WCI  11
HILLSDALE      FLURRIES  23  14  68 S10G20    29.35F WCI  12
HOWELL         SNOW      19  18  93 SE12      29.43S VSB 1/2 WCI   7

CITY           SKY/WX    TMP DP  RH WIND       PRES   REMARKS
JACKSON        LGT SNOW  21  14  74 E10       29.38F WCI  10
LAMBERTVILLE   CLOUDY    23  16  76 SE9       29.45F WCI  13
LANSING        SNOW      19  16  88 E13       29.42F VSB 1/4 WCI   6
LAPEER         LGT SNOW  20  17  88 SE8       29.47F VSB 1   WCI  10
MASON          LGT SNOW  20  15  79 SE9       29.41F WCI  10
MONROE         CLOUDY    23  16  74 SE10G22   29.46F WCI  12
MT. CLEMENS    HVY SNOW  22  22  99 SE10      29.48F VSB 1/4 WCI  11
PONTIAC        SNOW      20  17  88 SE12      29.44F VSB 1/2 WCI   8
PORT HOPE        N/A     18  15  88 SE6       29.55F WCI  10
PORT HURON     SNOW      19  16  86 E8        29.52F VSB 1/2 WCI   9
TRI CITIES     SNOW      19  17  92 E16       29.49S VSB 1/4 WCI   4
MIDLAND        LGT SNOW  19  16  86 E10       29.49S VSB 3/4 WCI   8
TROY           LGT SNOW  22  19  89 E7        29.49F WCI  13
SAGINAW HB     LGT SNOW  19  18  93 E12       29.48F VSB 3/4 WCI   7
$$
MIZ043>046-050>051-056>058-064>065-071>073-077>080-132200-
SOUTHWEST LOWER MICHIGAN

CITY           SKY/WX    TMP DP  RH WIND       PRES   REMARKS
BATTLE CREEK   LGT SNOW  24  17  74 SE7       29.35F WCI  16
BENTON HARBOR  LGT SNOW  27  23  85 SE10      29.28F VSB 3/4 WCI  17
BIG RAPIDS     SNOW      17  15  88 E12       29.41S VSB 1/4 WCI   5
COLDWATER      CLOUDY    27  15  61 SE10G17   29.34F WCI  17
FREMONT        LGT SNOW  19  18  93 E12G17    29.38S VSB 3/4 WCI   7
HOLLAND        LGT SNOW  23  19  85 E12       29.33F VSB 3/4 WCI  12
GRAND RAPIDS   HVY SNOW  20  17  88 E15       29.37S VSB 1/4 WCI   6
IONIA          SNOW      19  17  90 E10       29.40S VSB 1/2 WCI   8
KALAMAZOO      HVY SNOW  25  18  74 SE7       29.34S VSB 1/4 WCI  17
LUDINGTON      LGT SNOW  19  16  87 E14G21    29.39S VSB 3/4 WCI   6
MARSHALL       LGT SNOW  23  14  68 SE9       29.35F WCI  13
MOUNT PLEASANT SNOW      20  16  84 E12       29.45R VSB 1/2 WCI   8
MUSKEGON       SNOW      21  16  81 E22G28    29.36R VSB 1/2 WCI   5
SOUTH HAVEN    LGT SNOW  27  24  87 SE7       29.30F WCI  20
$$
MIZ016>042-132200-
NORTHERN LOWER MICHIGAN

CITY           SKY/WX    TMP DP  RH WIND       PRES   REMARKS
ALPENA         LGT SNOW  16  12  84 E3        29.59S FOG
BEAVER ISLAND  CLOUDY    19  12  76 E12G18    29.58R WCI   6
BELLAIRE       LGT SNOW  16  13  90 NE10      29.54S WCI   3
CADILLAC       LGT SNOW  15  13  89 E14       29.41R VSB 3/4 WCI   1
CHARLEVOIX     LGT SNOW  16  12  82 E14       29.59R WCI   2
FRANKFORT      LGT SNOW  20  17  86 E8        29.47R VSB 3/4 WCI  11
GAYLORD        LGT SNOW  12   7  80 NE10      29.49S WCI  -1
GRAYLING       LGT SNOW  14   9  81 NE13      29.49S WCI  -1
HARBOR SPRINGS LGT SNOW  14  10  83 E13       29.57R WCI   0
HOUGHTON LAKE  LGT SNOW  15  11  83 E12       29.47S VSB 3/4 WCI   2
MANISTEE       LGT SNOW  19  16  88 E14       29.43R VSB 3/4 WCI   6
OSCODA         SNOW      18  15  86 E7        29.55F VSB 1/2 WCI   9
PELLSTON       CLOUDY    15   9  76 E8        29.59S WCI   4
ROGERS CITY    CLOUDY    17   9  71 S5        29.60S WCI   9
TRAVERSE CITY  SNOW      18  14  84 NE12      29.50R VSB 1/2 WCI   5
$$
MIZ007>008-015-132200-
EASTERN UPPER MICHIGAN

CITY           SKY/WX    TMP DP  RH WIND       PRES   REMARKS
KINROSS        CLEAR      6   0  76 NE7       29.63S WCI  -6
MACKINAC ISLAN FLURRIES  14  10  85 NE15      29.60R WCI  -1
NEWBERRY       CLOUDY     5   0  79 N6        29.62R WCI  -6
S. S. MARIE    CLEAR      9  -2  61 E5        29.65R WCI   1
MUNISING         N/A     15   6  67 E9        29.65R WCI   3
$$
MIZ004>006-011>014-085-132200-
CENTRAL UPPER MICHIGAN

CITY           SKY/WX    TMP DP  RH WIND       PRES   REMARKS
MANISTIQUE     CLOUDY    13   4  68 N6        29.61R WCI   4
ESCANABA       LGT SNOW  17  13  84 NE13      29.59R FOG     WCI   4
MENOMINEE      LGT SNOW  26  22  84 E20G29    29.51R VSB 1   WCI  12
SAWYER-GWINN   LGT SNOW  14  10  85 E9        29.59R WCI   2
$$
MIZ001>003-009>011-084-132200-
WESTERN UPPER MICHIGAN

CITY           SKY/WX    TMP DP  RH WIND       PRES   REMARKS
IRON MOUNTAIN  LGT SNOW  17  12  80 N14       29.55R VSB 3/4 WCI   3
HOUGHTON       CLOUDY    20  13  74 NE7       29.63R WCI  11
COPPER HARBOR    N/A     22  17  81 E26G32    29.69R WCI   5
IRONWOOD       CLOUDY    18  14  84 N3        29.63R
$$

ABBREVIATIONS USED IN REMARKS
   TC - TEMPERATURE IN CELSIUS
  WCI - WIND CHILL INDEX
   HX - HEAT INDEX
  VSB - VISIBILITY





USA.gov is the U.S. government's official web portal to all federal, state and local government web resources and services.